This is the latest recevied weather packets stored in our database for station/object T10BNorth. If no packets are shown the sender has not sent any weather packets the latest 10 day(s).
| Time | Temp. | Humidity | Pressure | Rain* | Wind** | Luminosity | Snow |
|---|---|---|---|---|---|---|---|
| 1778193930 | 9.44° C | 51% | 1004.4 hPa | 0 mm | - | 30 W/m² | - |
| 1778193855 | 9.44° C | 51% | 1004.3 hPa | 0 mm | - | 28 W/m² | - |
| 1778193795 | 9.44° C | 49% | 1004.4 hPa | 0 mm | - | 26 W/m² | - |
| 1778193736 | 9.44° C | 49% | 1004.3 hPa | 0 mm | - | 26 W/m² | - |
| 1778193675 | 9.44° C | 50% | 1004.3 hPa | 0 mm | - | 26 W/m² | - |
| 1778193620 | 9.44° C | 50% | 1004.3 hPa | 0 mm | - | 26 W/m² | - |
| 1778193552 | 9.44° C | 48% | 1004.3 hPa | 0 mm | - | 26 W/m² | - |
| 1778193489 | 9.44° C | 48% | 1004.3 hPa | 0 mm | - | 26 W/m² | - |
| 1778193430 | 9.44° C | 51% | 1004.3 hPa | 0 mm | - | 26 W/m² | - |
| 1778193371 | 9.44° C | 48% | 1004.3 hPa | 0 mm | - | 28 W/m² | - |
| 1778193314 | 9.44° C | 50% | 1004.3 hPa | 0 mm | - | 28 W/m² | - |
| 1778193246 | 9.44° C | 48% | 1004.2 hPa | 0 mm | - | 30 W/m² | - |
| 1778193183 | 9.44° C | 49% | 1004.2 hPa | 0 mm | - | 30 W/m² | - |
| 1778193125 | 10° C | 47% | 1004.2 hPa | 0 mm | - | 30 W/m² | - |
| 1778193064 | 10° C | 48% | 1004.3 hPa | 0 mm | - | 30 W/m² | - |
| 1778193008 | 10° C | 49% | 1004.2 hPa | 0 mm | - | 33 W/m² | - |
| 1778192933 | 10° C | 47% | 1004.2 hPa | 0 mm | - | 33 W/m² | - |
| 1778192873 | 10° C | 50% | 1004.2 hPa | 0 mm | - | 32 W/m² | - |
| 1778192813 | 10° C | 49% | 1004.2 hPa | 0 mm | - | 32 W/m² | - |
| 1778192753 | 10° C | 48% | 1004.2 hPa | 0 mm | - | 32 W/m² | - |
| 1778192694 | 10° C | 48% | 1004.2 hPa | 0 mm | - | 33 W/m² | - |
| 1778192624 | 10° C | 48% | 1004.1 hPa | 0 mm | - | 37 W/m² | - |
| 1778192563 | 10° C | 48% | 1004.2 hPa | 0 mm | - | 42 W/m² | - |
| 1778192503 | 10° C | 47% | 1004.3 hPa | 0 mm | - | 49 W/m² | - |
| 1778192443 | 10° C | 48% | 1004.2 hPa | 0 mm | - | 58 W/m² | - |
* Rain latest hour (hover to see other rain measurements)
** Current wind speed in m/s (hover to see current wind gust speed)